This is the latest recevied weather packets stored in our database for station/object N4CRH-13. If no packets are shown the sender has not sent any weather packets the latest 10 day(s).
| Time | Temp. | Humidity | Pressure | Rain* | Wind** | Luminosity | Snow |
|---|---|---|---|---|---|---|---|
| 1778015510 | 1.67° C | 99% | 1289.1 hPa | 0 mm | - | 146 W/m² | - |
| 1778015205 | 1.67° C | 99% | 1289.1 hPa | 0 mm | - | 146 W/m² | - |
| 1778014901 | 1.67° C | 99% | 1289.1 hPa | 0 mm | - | 156 W/m² | - |
| 1778013388 | 1.67° C | 99% | 1289.2 hPa | 1.78 mm | - | 205 W/m² | - |
| 1778013085 | 1.67° C | 99% | 1289.4 hPa | 1.78 mm | - | 225 W/m² | - |
| 1778012780 | 1.67° C | 99% | 1289.4 hPa | 0 mm | - | 139 W/m² | - |
| 1778012476 | 1.67° C | 99% | 1289.6 hPa | 0 mm | - | 139 W/m² | - |
| 1778011871 | 1.67° C | 99% | 1289.6 hPa | 0 mm | - | 178 W/m² | - |
| 1778011564 | 1.67° C | 99% | 1289.7 hPa | 0 mm | - | 201 W/m² | - |
| 1778009743 | 1.11° C | 99% | 1289.8 hPa | 1.27 mm | - | 168 W/m² | - |
| 1778009440 | 1.11° C | 99% | 1290.1 hPa | 0 mm | - | 157 W/m² | - |
| 1778009138 | 1.11° C | 99% | 1289.8 hPa | 0 mm | - | 145 W/m² | - |
| 1778008836 | 0.56° C | 99% | 1290.1 hPa | 0 mm | - | 166 W/m² | - |
| 1778008528 | 0.56° C | 99% | 1289.8 hPa | 1.78 mm | - | 152 W/m² | - |
| 1778008226 | 0.56° C | 99% | 1290.2 hPa | 1.78 mm | - | 123 W/m² | - |
| 1778007617 | 0.56° C | 99% | 1290.2 hPa | 0 mm | - | 103 W/m² | - |
| 1778007010 | 1.11° C | 99% | 1290 hPa | 0 mm | - | 130 W/m² | - |
| 1778006707 | 1.67° C | 99% | 1290.2 hPa | 0 mm | - | 145 W/m² | - |
| 1778006403 | 1.11° C | 99% | 1290.2 hPa | 0 mm | - | 131 W/m² | - |
| 1778006095 | 1.11° C | 99% | 1290.4 hPa | 0 mm | - | 129 W/m² | - |
| 1778005791 | 0.56° C | 99% | 1290.4 hPa | 0 mm | - | 118 W/m² | - |
| 1778005488 | 1.11° C | 99% | 1290.4 hPa | 1.78 mm | - | 116 W/m² | - |
| 1778005184 | 1.11° C | 99% | 1290.6 hPa | 1.78 mm | - | 143 W/m² | - |
| 1778004882 | 0.56° C | 99% | 1290.4 hPa | 0 mm | - | 161 W/m² | - |
| 1778004579 | 0.56° C | 99% | 1290.7 hPa | 0 mm | - | 138 W/m² | - |
* Rain latest hour (hover to see other rain measurements)
** Current wind speed in m/s (hover to see current wind gust speed)